[[{"header":{"parameterUnit":"m.s-1","parameterCategory":1,"la1":30.2991,"la2":30.254,"lo1":-89.0895,"lo2":-89.0444,"dy":0.0017,"dx":0.0017,"nx":28,"ny":28,"refTime":"2026-02-14T03:00:00:Z","depth":0,"parameterNumber":2,"parameterNumberName":"U-component_of_WINDS"},"data":[0,0,0,0,0,0,0,0,0,0,0,0,0,0,0,0,0,0,0,0,0,0,0,0,0,0,0,0,0,0,0,0,0,0,0,0,0,0,0,0,0,0,0,0,0,0,0,0,0,0,0,0,0,0,0,0,0,0,-0.119,-0.119,0,-0.1196,-0.1196,-0.1196,-0.12,-0.12,-0.12,-0.12,-0.1208,-0.1208,-0.1208,0,0,0,0,0,0,0,0,0,0,0,0,0,-0.1182,-0.1182,-0.119,-0.119,-0.119,-0.1196,-0.1196,-0.1196,-0.12,-0.12,-0.12,-0.12,-0.1208,-0.1208,-0.1208,0,0,0,0,0,0,0,0,0,0,0,0,0,-0.1187,-0.1182,-0.119,-0.1192,-0.1192,-0.1196,-0.1196,-0.1196,-0.12,-0.12,-0.12,-0.12,-0.1208,-0.1208,-0.1208,-0.121,0,0,-0.1209,-0.1209,0,0,0,0,0,0,0,0,-0.1186,-0.1187,-0.1192,-0.1192,-0.1192,-0.1197,-0.1197,-0.1201,-0.12,-0.1197,-0.12,-0.12,-0.1204,-0.1205,-0.1206,-0.1211,-0.1211,-0.1209,-0.1209,-0.121,-0.121,0,0,0,0,0,0,0,-0.1186,-0.1187,-0.1192,-0.1192,-0.1192,-0.1194,-0.1194,-0.1197,-0.1201,-0.1197,-0.1197,-0.1198,-0.1205,-0.1206,-0.1206,-0.1211,-0.1209,-0.121,-0.121,-0.121,-0.122,-0.122,0,0,0,0,0,0,-0.1185,-0.1186,-0.1192,-0.1192,-0.1189,-0.1194,-0.1195,-0.1196,-0.1201,-0.1201,-0.1198,-0.1198,-0.1205,-0.1206,-0.1207,-0.1211,-0.121,-0.121,-0.121,-0.122,-0.122,-0.122,0,0,0,0,0,0,-0.1185,-0.1185,-0.1192,-0.1189,-0.119,-0.1194,-0.1195,-0.1196,-0.1197,-0.1201,-0.1202,-0.1199,-0.1205,-0.1206,-0.121,-0.1211,-0.121,-0.121,-0.1219,-0.122,-0.122,-0.1218,0,0,0,0,0,0,-0.1185,-0.1185,-0.1186,-0.1189,-0.119,-0.1194,-0.1195,-0.1196,-0.1197,-0.1198,-0.1202,-0.1203,-0.1205,-0.1209,-0.121,-0.1211,-0.1211,-0.1219,-0.1219,-0.122,-0.1218,-0.1218,-0.1218,0,0,0,0,0,-0.1184,-0.1185,-0.1186,-0.1186,-0.1191,-0.1194,-0.1195,-0.1197,-0.1198,-0.1198,-0.1201,-0.1203,-0.1211,-0.121,-0.121,-0.1212,-0.1219,-0.1219,-0.122,-0.1218,-0.1218,-0.1218,0,0,0,0,0,0,-0.1181,-0.1185,-0.1186,-0.1188,-0.119,-0.1194,-0.1195,-0.1197,-0.12,-0.12,-0.1204,-0.1205,-0.1208,-0.121,-0.1209,-0.1215,-0.1215,-0.1216,-0.1213,-0.1213,-0.1213,-0.1213,-0.1211,0,0,0,0,0,-0.118,-0.1182,-0.1186,-0.1187,-0.1188,-0.1191,-0.1193,-0.1195,-0.1198,-0.1199,-0.1202,-0.1206,-0.1209,-0.1211,-0.1215,-0.1218,-0.122,-0.122,-0.122,-0.122,-0.122,-0.1223,-0.1224,-0.122,-0.122,-0.122,0,0,-0.1179,-0.1181,-0.1182,-0.1186,-0.1188,-0.1191,-0.1192,-0.1195,-0.1197,-0.12,-0.1203,-0.1206,-0.121,-0.1214,-0.1216,-0.1216,-0.1221,-0.122,-0.122,-0.122,-0.1224,-0.1224,-0.1224,-0.122,-0.122,-0.122,0,0,-0.1178,-0.118,-0.1181,-0.1184,-0.1187,-0.119,-0.119,-0.1195,-0.1196,-0.12,-0.1203,-0.1206,-0.1211,-0.1215,-0.1217,-0.1219,-0.1221,-0.122,-0.122,-0.1224,-0.1224,-0.1224,-0.1226,-0.1227,-0.122,-0.122,-0.122,0,-0.1176,-0.1179,-0.1182,-0.1184,-0.1187,-0.1189,-0.1192,-0.1194,-0.1199,-0.1201,-0.1201,-0.1209,-0.1212,-0.1217,-0.1218,-0.1219,-0.1221,-0.122,-0.1224,-0.1224,-0.1224,-0.1226,-0.1227,-0.122,-0.122,-0.122,-0.122,0,-0.1177,-0.118,-0.1181,-0.1185,-0.1188,-0.119,-0.1194,-0.1196,-0.1198,-0.1201,-0.1206,-0.121,-0.1214,-0.1216,-0.1217,-0.1222,-0.1222,-0.1223,-0.1223,-0.1224,-0.1226,-0.1227,-0.122,-0.122,-0.122,-0.122,0,0,-0.1174,-0.118,-0.1181,-0.1184,-0.1188,-0.1191,-0.1194,-0.1199,-0.1201,-0.1204,-0.1208,-0.1213,-0.1215,-0.1217,-0.122,-0.1223,-0.1226,-0.1224,-0.1224,-0.1225,-0.1232,-0.1232,-0.1233,-0.1227,-0.1227,-0.1227,-0.1232,0,-0.1174,-0.1179,-0.1182,-0.1187,-0.119,-0.1193,-0.1196,-0.12,-0.1203,-0.1207,-0.1211,-0.1215,-0.1216,-0.1218,-0.1221,-0.1225,-0.1228,-0.1224,-0.1232,-0.1232,-0.1231,-0.1233,-0.1233,-0.1237,-0.1233,-0.1233,-0.1233,0,-0.1175,-0.1178,-0.1183,-0.1189,-0.119,-0.1193,-0.1198,-0.1201,-0.1207,-0.1209,-0.1213,-0.1215,-0.122,-0.122,-0.1228,-0.1226,-0.1229,-0.1232,-0.1232,-0.1233,-0.1233,-0.1235,-0.1238,-0.1239,-0.1234,-0.1234,-0.1234,0,-0.1173,-0.1179,-0.1183,-0.1185,-0.1192,-0.1194,-0.1197,-0.1202,-0.1205,-0.121,-0.1212,-0.1217,-0.1221,-0.1225,-0.123,-0.1229,-0.1238,-0.1238,-0.1241,-0.124,-0.1242,-0.1242,-0.1246,-0.1243,-0.1243,-0.1243,-0.1243,0,-0.1173,-0.1176,-0.1182,-0.1185,-0.1189,-0.1193,-0.1197,-0.12,-0.1205,-0.1209,-0.1213,-0.1216,-0.1222,-0.1227,-0.1231,-0.1237,-0.1239,-0.1241,-0.1242,-0.1241,-0.1241,-0.1244,-0.1244,-0.1243,-0.1243,-0.1243,-0.1243,0,-0.1171,-0.1175,-0.118,-0.1186,-0.1188,-0.1191,-0.1197,-0.12,-0.1204,-0.1209,-0.1211,-0.1217,-0.1223,-0.1228,-0.1236,-0.1239,-0.1246,-0.1247,-0.1244,-0.1245,-0.1248,-0.1248,-0.1254,-0.1256,-0.1251,-0.1251,-0.1251,0,-0.1171,-0.1174,-0.1181,-0.1184,-0.1187,-0.1191,-0.1194,-0.1199,-0.1203,-0.121,-0.1212,-0.1219,-0.1224,-0.1234,-0.124,-0.1247,-0.1248,-0.125,-0.1249,-0.1249,-0.1249,-0.1249,-0.125,-0.125,-0.125,-0.125,-0.125,0,-0.1172,-0.1174,-0.1178,-0.1184,-0.1188,-0.1192,-0.1197,-0.1199,-0.1205,-0.1209,-0.1216,-0.122,-0.1229,-0.1236,-0.1243,-0.1247,-0.125,-0.1251,-0.1252,-0.1251,-0.125,-0.1251,-0.1245,-0.125,-0.125,-0.125,-0.125,-0.125,-0.1171,-0.1174,-0.118,-0.1185,-0.1189,-0.1194,-0.1198,-0.1202,-0.1207,-0.1215,-0.1217,-0.1224,-0.1231,-0.1242,-0.1246,-0.1252,-0.1253,-0.1254,-0.1255,-0.1255,-0.1256,-0.1248,-0.1254,-0.1254,-0.1254,-0.1254,-0.1254,0,-0.1172,-0.1176,-0.1181,-0.1188,-0.1193,-0.1195,-0.1201,-0.1204,-0.121,-0.1216,-0.1222,-0.123,-0.1237,-0.1244,-0.1252,-0.1255,-0.1257,-0.1257,-0.1257,-0.1259,-0.1254,-0.1253,-0.1256,-0.1256,-0.1256,-0.1256,-0.1256,-0.1256,-0.1173,-0.1179,-0.1182,-0.119,-0.1194,-0.1201,-0.1204,-0.1209,-0.1214,-0.1223,-0.1229,-0.1233,-0.124,-0.1248,-0.1256,-0.1258,-0.1261,-0.1261,-0.1263,-0.1259,-0.1259,-0.1258,-0.1257,-0.1261,-0.1261,-0.1267,-0.1267,-0.1267]},{"header":{"parameterUnit":"m.s-1","parameterCategory":1,"la1":30.2991,"la2":30.254,"lo1":-89.0895,"lo2":-89.0444,"dy":0.0017,"dx":0.0017,"nx":28,"ny":28,"refTime":"2026-02-14T03:00:00:Z","depth":0,"parameterNumber":3,"parameterNumberName":"V-component_of_WINDS"},"data":[0,0,0,0,0,0,0,0,0,0,0,0,0,0,0,0,0,0,0,0,0,0,0,0,0,0,0,0,0,0,0,0,0,0,0,0,0,0,0,0,0,0,0,0,0,0,0,0,0,0,0,0,0,0,0,0,0,0,1.5354,1.5353,0,1.5281,1.528,1.5279,1.5291,1.5293,1.5294,1.5295,1.5214,1.5211,1.5208,0,0,0,0,0,0,0,0,0,0,0,0,0,1.5501,1.5498,1.5354,1.5353,1.5352,1.5281,1.528,1.5279,1.5291,1.5293,1.5294,1.5296,1.5215,1.5211,1.5207,0,0,0,0,0,0,0,0,0,0,0,0,0,1.5433,1.5497,1.5354,1.535,1.5349,1.5281,1.528,1.5278,1.5291,1.5293,1.5295,1.5297,1.5217,1.5212,1.5207,1.5137,0,0,1.5191,1.5189,0,0,0,0,0,0,0,0,1.5437,1.5428,1.5352,1.535,1.5349,1.5297,1.5302,1.5231,1.529,1.5313,1.5295,1.5297,1.524,1.5233,1.5215,1.5133,1.513,1.5191,1.5188,1.5186,1.5184,0,0,0,0,0,0,0,1.5442,1.5431,1.5325,1.535,1.5349,1.535,1.5343,1.5288,1.5266,1.5311,1.5312,1.5303,1.524,1.522,1.5213,1.5128,1.5191,1.5187,1.5184,1.5182,1.4986,1.4984,0,0,0,0,0,0,1.5448,1.5435,1.5327,1.5323,1.5399,1.5346,1.5338,1.5312,1.5267,1.5262,1.5302,1.5304,1.5227,1.5219,1.521,1.5125,1.5186,1.5181,1.5178,1.4988,1.4985,1.4983,0,0,0,0,0,0,1.5451,1.5439,1.533,1.5379,1.5365,1.5342,1.5312,1.5309,1.529,1.526,1.5255,1.5286,1.5229,1.5217,1.5156,1.5123,1.5179,1.5174,1.499,1.4987,1.4984,1.4955,0,0,0,0,0,0,1.5456,1.544,1.5414,1.5378,1.5363,1.5278,1.531,1.5306,1.5281,1.5284,1.5244,1.5239,1.5229,1.5163,1.5151,1.5117,1.517,1.4993,1.4989,1.4985,1.4959,1.4951,1.4945,0,0,0,0,0,1.5461,1.5407,1.5412,1.5399,1.533,1.5276,1.5267,1.5258,1.5279,1.5252,1.5233,1.524,1.5129,1.5157,1.5143,1.5107,1.4995,1.499,1.4985,1.4962,1.4953,1.4945,0,0,0,0,0,0,1.5437,1.5402,1.5408,1.5341,1.5312,1.5278,1.5244,1.5249,1.5211,1.5215,1.5205,1.5195,1.5133,1.5114,1.5145,1.5037,1.5065,1.5057,1.5052,1.5042,1.5036,1.5041,1.5166,0,0,0,0,0,1.5424,1.5385,1.5356,1.53,1.5285,1.5267,1.5243,1.524,1.5208,1.5195,1.5171,1.5139,1.5097,1.5069,1.5028,1.4957,1.4948,1.4925,1.4918,1.4913,1.4905,1.4866,1.4856,1.4967,1.4967,1.4967,0,0,1.5397,1.5373,1.5348,1.5295,1.5271,1.5229,1.5256,1.521,1.5179,1.5187,1.5128,1.511,1.5072,1.5006,1.4975,1.4988,1.4873,1.4906,1.4902,1.4898,1.486,1.485,1.4841,1.4964,1.4964,1.4965,0,0,1.5325,1.5304,1.5255,1.5232,1.5197,1.5186,1.5174,1.514,1.5129,1.507,1.5076,1.5037,1.4965,1.4938,1.4915,1.4836,1.4841,1.4823,1.4785,1.4748,1.4739,1.4731,1.4702,1.4692,1.4816,1.4816,1.4816,0,1.5295,1.5234,1.5229,1.5183,1.5159,1.5167,1.5117,1.5094,1.5047,1.503,1.5046,1.4956,1.4931,1.4859,1.484,1.4821,1.4807,1.4827,1.4741,1.4733,1.4726,1.4698,1.4687,1.4814,1.4814,1.4815,1.4815,0,1.5198,1.5155,1.512,1.5077,1.5049,1.5001,1.4988,1.496,1.496,1.4946,1.4886,1.4857,1.4812,1.4794,1.4792,1.4721,1.473,1.4744,1.4771,1.4713,1.4687,1.4676,1.4811,1.4812,1.4813,1.4813,0,0,1.5107,1.5064,1.5051,1.5032,1.4995,1.4961,1.4914,1.4871,1.4847,1.4815,1.4774,1.4714,1.4726,1.47,1.4695,1.4662,1.4601,1.468,1.4679,1.4666,1.4521,1.4511,1.4499,1.4605,1.4603,1.4602,1.4524,0,1.5032,1.495,1.4945,1.487,1.4831,1.4839,1.4797,1.477,1.4756,1.472,1.4704,1.4662,1.4682,1.4666,1.4634,1.4616,1.4572,1.4621,1.4566,1.4564,1.4574,1.4485,1.4473,1.4401,1.4514,1.4512,1.4511,0,1.4932,1.49,1.4822,1.4792,1.4775,1.4738,1.4699,1.4664,1.4633,1.4625,1.4598,1.4598,1.4548,1.4579,1.451,1.4543,1.4521,1.4508,1.4505,1.4499,1.4533,1.4475,1.4378,1.4367,1.4495,1.4496,1.4497,0,1.4874,1.481,1.4755,1.4738,1.4702,1.4676,1.4659,1.463,1.4605,1.4571,1.4554,1.4514,1.4491,1.4459,1.4448,1.4472,1.4379,1.4409,1.4371,1.4371,1.4349,1.4351,1.4247,1.4337,1.4337,1.4337,1.4337,0,1.4789,1.4741,1.4728,1.4694,1.464,1.4635,1.4581,1.4566,1.454,1.4503,1.4507,1.4471,1.446,1.4422,1.4413,1.4357,1.4347,1.4339,1.4336,1.4337,1.4338,1.4321,1.4326,1.4334,1.4335,1.4335,1.4336,0,1.4714,1.4703,1.4644,1.4616,1.4607,1.4569,1.4543,1.451,1.4499,1.4451,1.444,1.4421,1.4376,1.4363,1.4309,1.4303,1.4237,1.424,1.4248,1.4248,1.421,1.4214,1.4091,1.4074,1.4176,1.4175,1.4174,0,1.466,1.4623,1.4592,1.4568,1.4551,1.4512,1.4487,1.4481,1.4455,1.4417,1.4388,1.4345,1.431,1.4239,1.4219,1.4178,1.418,1.414,1.4173,1.4176,1.4178,1.418,1.4176,1.4133,1.4132,1.4131,1.413,0,1.4566,1.4563,1.4528,1.4492,1.4463,1.4433,1.4404,1.4384,1.4374,1.4344,1.43,1.4273,1.4219,1.4176,1.4135,1.4116,1.412,1.412,1.4109,1.4109,1.4115,1.411,1.423,1.4122,1.4123,1.4124,1.4124,1.4124,1.4499,1.4467,1.444,1.4401,1.438,1.4353,1.4321,1.4307,1.4271,1.4228,1.4226,1.4178,1.4148,1.4094,1.4073,1.4035,1.4046,1.403,1.4026,1.4022,1.4018,1.4122,1.4027,1.4027,1.4028,1.4028,1.4028,0,1.4404,1.4388,1.4353,1.4314,1.4283,1.4293,1.4262,1.4235,1.4194,1.4167,1.4133,1.4083,1.4041,1.4019,1.3978,1.3951,1.3952,1.3941,1.3942,1.3937,1.4011,1.4024,1.394,1.394,1.394,1.3941,1.3941,1.3941,1.4351,1.4298,1.4292,1.4228,1.4212,1.4167,1.4148,1.4124,1.4102,1.4047,1.4013,1.4,1.3975,1.3932,1.3894,1.3888,1.3872,1.3859,1.3855,1.3923,1.3932,1.3941,1.3953,1.3856,1.3856,1.3785,1.3784,1.3783]}]]